owner,sensor,date,latitude,longitude,air_pressure(mBar),qcFlag 
COMPS,ioos:station:USF.COMPS:C10:1,2019-08-01T00:35:00,27.1690,-82.9260,1019.45,11111222 
COMPS,ioos:station:USF.COMPS:C10:1,2019-08-01T01:35:00,27.1690,-82.9260,1018.63,11111222 
COMPS,ioos:station:USF.COMPS:C10:1,2019-08-01T02:35:00,27.1690,-82.9260,1016.87,11111222 
COMPS,ioos:station:USF.COMPS:C10:1,2019-08-01T03:35:00,27.1690,-82.9260,1015.74,11111222 
COMPS,ioos:station:USF.COMPS:C10:1,2019-08-01T04:35:00,27.1690,-82.9260,1016.49,11111222 
COMPS,ioos:station:USF.COMPS:C10:1,2019-08-01T05:35:00,27.1690,-82.9260,1015.81,11111222 
COMPS,ioos:station:USF.COMPS:C10:1,2019-08-01T06:35:00,27.1690,-82.9260,1015.49,11111222 
COMPS,ioos:station:USF.COMPS:C10:1,2019-08-01T07:35:00,27.1690,-82.9260,1015.7,11111222 
COMPS,ioos:station:USF.COMPS:C10:1,2019-08-01T09:35:00,27.1690,-82.9260,1016.12,11111222 
COMPS,ioos:station:USF.COMPS:C10:1,2019-08-01T10:35:00,27.1690,-82.9260,1015.88,11111222 
COMPS,ioos:station:USF.COMPS:C10:1,2019-08-01T11:35:00,27.1690,-82.9260,1016.67,11111222 
COMPS,ioos:station:USF.COMPS:C10:1,2019-08-01T14:35:00,27.1690,-82.9260,1017.05,11111222 
COMPS,ioos:station:USF.COMPS:C10:1,2019-08-01T16:35:00,27.1690,-82.9260,1017.26,11111222 
COMPS,ioos:station:USF.COMPS:C10:1,2019-08-01T18:35:00,27.1690,-82.9260,1016.11,11111222 
COMPS,ioos:station:USF.COMPS:C10:1,2019-08-01T19:35:00,27.1690,-82.9260,1016.07,11111222 
COMPS,ioos:station:USF.COMPS:C10:1,2019-08-01T20:35:00,27.1690,-82.9260,1015.52,11111222 
COMPS,ioos:station:USF.COMPS:C10:1,2019-08-01T21:35:00,27.1690,-82.9260,1015.35,11111222 
COMPS,ioos:station:USF.COMPS:C10:1,2019-08-01T23:35:00,27.1690,-82.9260,1015.09,11111222 
COMPS,ioos:station:USF.COMPS:C10:1,2019-08-02T00:35:00,27.1690,-82.9260,1014.84,11111222 
COMPS,ioos:station:USF.COMPS:C10:1,2019-08-02T01:35:00,27.1690,-82.9260,1015.21,11111222 
COMPS,ioos:station:USF.COMPS:C10:1,2019-08-02T02:35:00,27.1690,-82.9260,1015.44,11111222 
COMPS,ioos:station:USF.COMPS:C10:1,2019-08-02T03:35:00,27.1690,-82.9260,1015.29,11111222 
COMPS,ioos:station:USF.COMPS:C10:1,2019-08-02T06:35:00,27.1690,-82.9260,1014.11,11111222 
COMPS,ioos:station:USF.COMPS:C10:1,2019-08-02T07:35:00,27.1690,-82.9260,1013.95,11111222 
COMPS,ioos:station:USF.COMPS:C10:1,2019-08-02T08:35:00,27.1690,-82.9260,1013.65,11111222 
COMPS,ioos:station:USF.COMPS:C10:1,2019-08-02T09:35:00,27.1690,-82.9260,1013.62,11111222 
COMPS,ioos:station:USF.COMPS:C10:1,2019-08-02T10:35:00,27.1690,-82.9260,1013.78,11111222 
COMPS,ioos:station:USF.COMPS:C10:1,2019-08-02T11:35:00,27.1690,-82.9260,1013.87,11111222 
COMPS,ioos:station:USF.COMPS:C10:1,2019-08-02T12:35:00,27.1690,-82.9260,1014.28,11111222 
COMPS,ioos:station:USF.COMPS:C10:1,2019-08-02T13:35:00,27.1690,-82.9260,1014.38,11111222 
COMPS,ioos:station:USF.COMPS:C10:1,2019-08-02T14:35:00,27.1690,-82.9260,1014.18,11111222 
COMPS,ioos:station:USF.COMPS:C10:1,2019-08-02T15:35:00,27.1690,-82.9260,1014.16,11111222 
COMPS,ioos:station:USF.COMPS:C10:1,2019-08-02T17:35:00,27.1690,-82.9260,1013.97,11111222 
COMPS,ioos:station:USF.COMPS:C10:1,2019-08-02T19:35:00,27.1690,-82.9260,1012.91,11111222 
COMPS,ioos:station:USF.COMPS:C10:1,2019-08-02T20:35:00,27.1690,-82.9260,1012.12,11111222 
COMPS,ioos:station:USF.COMPS:C10:1,2019-08-02T21:35:00,27.1690,-82.9260,1011.93,11111222 
COMPS,ioos:station:USF.COMPS:C10:1,2019-08-02T22:35:00,27.1690,-82.9260,1011.96,11111222 
COMPS,ioos:station:USF.COMPS:C10:1,2019-08-02T23:35:00,27.1690,-82.9260,1012.48,11111222 
COMPS,ioos:station:USF.COMPS:C10:1,2019-08-03T00:35:00,27.1690,-82.9260,1012.93,11111222 
COMPS,ioos:station:USF.COMPS:C10:1,2019-08-03T01:35:00,27.1690,-82.9260,1013.47,11111222 
COMPS,ioos:station:USF.COMPS:C10:1,2019-08-03T03:35:00,27.1690,-82.9260,1013.46,11111222 
COMPS,ioos:station:USF.COMPS:C10:1,2019-08-03T04:35:00,27.1690,-82.9260,1013.37,11111222 
COMPS,ioos:station:USF.COMPS:C10:1,2019-08-03T05:35:00,27.1690,-82.9260,1013.15,11111222 
COMPS,ioos:station:USF.COMPS:C10:1,2019-08-03T06:35:00,27.1690,-82.9260,1012.79,11111222 
COMPS,ioos:station:USF.COMPS:C10:1,2019-08-03T07:35:00,27.1690,-82.9260,1012.38,11111222 
COMPS,ioos:station:USF.COMPS:C10:1,2019-08-03T08:35:00,27.1690,-82.9260,1012.28,11111222 
COMPS,ioos:station:USF.COMPS:C10:1,2019-08-03T09:35:00,27.1690,-82.9260,1012.38,11111222 
COMPS,ioos:station:USF.COMPS:C10:1,2019-08-03T10:35:00,27.1690,-82.9260,1012.69,11111222 
COMPS,ioos:station:USF.COMPS:C10:1,2019-08-03T11:35:00,27.1690,-82.9260,1012.97,11111222 
COMPS,ioos:station:USF.COMPS:C10:1,2019-08-03T12:35:00,27.1690,-82.9260,1013.65,11111222 
COMPS,ioos:station:USF.COMPS:C10:1,2019-08-03T13:35:00,27.1690,-82.9260,1014.19,11111222 
COMPS,ioos:station:USF.COMPS:C10:1,2019-08-03T14:35:00,27.1690,-82.9260,1014.42,11111222 
COMPS,ioos:station:USF.COMPS:C10:1,2019-08-03T15:35:00,27.1690,-82.9260,1014.86,11111222 
COMPS,ioos:station:USF.COMPS:C10:1,2019-08-03T16:35:00,27.1690,-82.9260,1014.46,11111222 
COMPS,ioos:station:USF.COMPS:C10:1,2019-08-03T17:35:00,27.1690,-82.9260,1013.91,11111222 
COMPS,ioos:station:USF.COMPS:C10:1,2019-08-03T18:35:00,27.1690,-82.9260,1013.79,11111222 
COMPS,ioos:station:USF.COMPS:C10:1,2019-08-03T19:35:00,27.1690,-82.9260,1013.43,11111222 
COMPS,ioos:station:USF.COMPS:C10:1,2019-08-03T20:35:00,27.1690,-82.9260,1013.04,11111222 
COMPS,ioos:station:USF.COMPS:C10:1,2019-08-03T21:35:00,27.1690,-82.9260,1013.32,11111222 
COMPS,ioos:station:USF.COMPS:C10:1,2019-08-04T00:35:00,27.1690,-82.9260,1013.88,11111222 
COMPS,ioos:station:USF.COMPS:C10:1,2019-08-04T01:35:00,27.1690,-82.9260,1014.28,11111222 
COMPS,ioos:station:USF.COMPS:C10:1,2019-08-04T02:35:00,27.1690,-82.9260,1014.95,11111222 
COMPS,ioos:station:USF.COMPS:C10:1,2019-08-04T03:35:00,27.1690,-82.9260,1015.11,11111222 
COMPS,ioos:station:USF.COMPS:C10:1,2019-08-04T04:35:00,27.1690,-82.9260,1015.42,11111222 
COMPS,ioos:station:USF.COMPS:C10:1,2019-08-04T05:35:00,27.1690,-82.9260,1015.31,11111222 
COMPS,ioos:station:USF.COMPS:C10:1,2019-08-04T06:35:00,27.1690,-82.9260,1014.74,11111222 
COMPS,ioos:station:USF.COMPS:C10:1,2019-08-04T07:35:00,27.1690,-82.9260,1014.15,11111222 
COMPS,ioos:station:USF.COMPS:C10:1,2019-08-04T08:35:00,27.1690,-82.9260,1014.3,11111222 
COMPS,ioos:station:USF.COMPS:C10:1,2019-08-04T09:35:00,27.1690,-82.9260,1014.19,11111222 
COMPS,ioos:station:USF.COMPS:C10:1,2019-08-04T10:35:00,27.1690,-82.9260,1014.78,11111222 
COMPS,ioos:station:USF.COMPS:C10:1,2019-08-04T11:35:00,27.1690,-82.9260,1015.31,11111222 
COMPS,ioos:station:USF.COMPS:C10:1,2019-08-04T12:35:00,27.1690,-82.9260,1016.2,11111222 
COMPS,ioos:station:USF.COMPS:C10:1,2019-08-04T13:35:00,27.1690,-82.9260,1016.3,11111222 
COMPS,ioos:station:USF.COMPS:C10:1,2019-08-04T14:35:00,27.1690,-82.9260,1016.91,11111222 
COMPS,ioos:station:USF.COMPS:C10:1,2019-08-04T15:35:00,27.1690,-82.9260,1016.74,11111222 
COMPS,ioos:station:USF.COMPS:C10:1,2019-08-04T16:35:00,27.1690,-82.9260,1016.34,11111222 
COMPS,ioos:station:USF.COMPS:C10:1,2019-08-04T17:35:00,27.1690,-82.9260,1016.29,11111222 
COMPS,ioos:station:USF.COMPS:C10:1,2019-08-04T18:35:00,27.1690,-82.9260,1015.88,11111222 
COMPS,ioos:station:USF.COMPS:C10:1,2019-08-04T19:35:00,27.1690,-82.9260,1015.41,11111222 
COMPS,ioos:station:USF.COMPS:C10:1,2019-08-04T20:35:00,27.1690,-82.9260,1014.88,11111222 
COMPS,ioos:station:USF.COMPS:C10:1,2019-08-04T21:35:00,27.1690,-82.9260,1014.63,11111222 
COMPS,ioos:station:USF.COMPS:C10:1,2019-08-04T22:35:00,27.1690,-82.9260,1014.82,11111222 
COMPS,ioos:station:USF.COMPS:C10:1,2019-08-05T00:35:00,27.1690,-82.9260,1015.47,11111222 
COMPS,ioos:station:USF.COMPS:C10:1,2019-08-05T01:35:00,27.1690,-82.9260,1015.86,11111222 
COMPS,ioos:station:USF.COMPS:C10:1,2019-08-05T02:35:00,27.1690,-82.9260,1016.34,11111222 
COMPS,ioos:station:USF.COMPS:C10:1,2019-08-05T03:35:00,27.1690,-82.9260,1016.36,11111222 
COMPS,ioos:station:USF.COMPS:C10:1,2019-08-05T04:35:00,27.1690,-82.9260,1015.8,11111222 
COMPS,ioos:station:USF.COMPS:C10:1,2019-08-05T05:35:00,27.1690,-82.9260,1015.27,11111222 
COMPS,ioos:station:USF.COMPS:C10:1,2019-08-05T06:35:00,27.1690,-82.9260,1015.14,11111222 
COMPS,ioos:station:USF.COMPS:C10:1,2019-08-05T07:35:00,27.1690,-82.9260,1014.98,11111222 
COMPS,ioos:station:USF.COMPS:C10:1,2019-08-05T08:35:00,27.1690,-82.9260,1014.76,11111222 
COMPS,ioos:station:USF.COMPS:C10:1,2019-08-05T09:35:00,27.1690,-82.9260,1015.39,11111222 
COMPS,ioos:station:USF.COMPS:C10:1,2019-08-05T10:35:00,27.1690,-82.9260,1015.34,11111222 
COMPS,ioos:station:USF.COMPS:C10:1,2019-08-05T11:35:00,27.1690,-82.9260,1015.91,11111222 
COMPS,ioos:station:USF.COMPS:C10:1,2019-08-05T12:35:00,27.1690,-82.9260,1016.76,11111222 
COMPS,ioos:station:USF.COMPS:C10:1,2019-08-05T13:35:00,27.1690,-82.9260,1016.78,11111222 
COMPS,ioos:station:USF.COMPS:C10:1,2019-08-05T14:35:00,27.1690,-82.9260,1016.76,11111222 
COMPS,ioos:station:USF.COMPS:C10:1,2019-08-05T15:35:00,27.1690,-82.9260,1017.0,11111222 
COMPS,ioos:station:USF.COMPS:C10:1,2019-08-05T16:35:00,27.1690,-82.9260,1016.87,11111222 
COMPS,ioos:station:USF.COMPS:C10:1,2019-08-05T17:35:00,27.1690,-82.9260,1016.83,11111222 
COMPS,ioos:station:USF.COMPS:C10:1,2019-08-05T18:35:00,27.1690,-82.9260,1016.56,11111222 
COMPS,ioos:station:USF.COMPS:C10:1,2019-08-05T19:35:00,27.1690,-82.9260,1015.76,11111222 
COMPS,ioos:station:USF.COMPS:C10:1,2019-08-05T20:35:00,27.1690,-82.9260,1015.76,11111222 
COMPS,ioos:station:USF.COMPS:C10:1,2019-08-05T21:35:00,27.1690,-82.9260,1016.06,11111222 
COMPS,ioos:station:USF.COMPS:C10:1,2019-08-05T23:35:00,27.1690,-82.9260,1016.02,11111222 
COMPS,ioos:station:USF.COMPS:C10:1,2019-08-06T00:35:00,27.1690,-82.9260,1016.27,11111222 
COMPS,ioos:station:USF.COMPS:C10:1,2019-08-06T01:35:00,27.1690,-82.9260,1016.58,11111222 
COMPS,ioos:station:USF.COMPS:C10:1,2019-08-06T02:35:00,27.1690,-82.9260,1016.72,11111222 
COMPS,ioos:station:USF.COMPS:C10:1,2019-08-06T03:35:00,27.1690,-82.9260,1016.79,11111222 
COMPS,ioos:station:USF.COMPS:C10:1,2019-08-06T04:35:00,27.1690,-82.9260,1016.43,11111222 
COMPS,ioos:station:USF.COMPS:C10:1,2019-08-06T05:35:00,27.1690,-82.9260,1016.0,11111222 
COMPS,ioos:station:USF.COMPS:C10:1,2019-08-06T07:35:00,27.1690,-82.9260,1015.0,11111222 
COMPS,ioos:station:USF.COMPS:C10:1,2019-08-06T08:35:00,27.1690,-82.9260,1015.13,11111222 
COMPS,ioos:station:USF.COMPS:C10:1,2019-08-06T09:35:00,27.1690,-82.9260,1015.06,11111222 
COMPS,ioos:station:USF.COMPS:C10:1,2019-08-06T10:35:00,27.1690,-82.9260,1015.47,11111222 
COMPS,ioos:station:USF.COMPS:C10:1,2019-08-06T11:35:00,27.1690,-82.9260,1015.75,11111222 
COMPS,ioos:station:USF.COMPS:C10:1,2019-08-06T12:35:00,27.1690,-82.9260,1016.33,11111222 
COMPS,ioos:station:USF.COMPS:C10:1,2019-08-06T13:35:00,27.1690,-82.9260,1016.52,11111222 
COMPS,ioos:station:USF.COMPS:C10:1,2019-08-06T14:35:00,27.1690,-82.9260,1016.38,11111222 
COMPS,ioos:station:USF.COMPS:C10:1,2019-08-06T15:35:00,27.1690,-82.9260,1016.5,11111222 
COMPS,ioos:station:USF.COMPS:C10:1,2019-08-06T16:35:00,27.1690,-82.9260,1016.55,11111222 
COMPS,ioos:station:USF.COMPS:C10:1,2019-08-06T17:35:00,27.1690,-82.9260,1016.16,11111222 
COMPS,ioos:station:USF.COMPS:C10:1,2019-08-06T18:35:00,27.1690,-82.9260,1015.26,11111222 
COMPS,ioos:station:USF.COMPS:C10:1,2019-08-06T19:35:00,27.1690,-82.9260,1015.15,11111222 
COMPS,ioos:station:USF.COMPS:C10:1,2019-08-06T20:35:00,27.1690,-82.9260,1014.72,11111222 
COMPS,ioos:station:USF.COMPS:C10:1,2019-08-06T21:35:00,27.1690,-82.9260,1014.87,11111222 
COMPS,ioos:station:USF.COMPS:C10:1,2019-08-06T22:35:00,27.1690,-82.9260,1014.94,11111222 
COMPS,ioos:station:USF.COMPS:C10:1,2019-08-07T00:35:00,27.1690,-82.9260,1015.84,11111222 
COMPS,ioos:station:USF.COMPS:C10:1,2019-08-07T01:35:00,27.1690,-82.9260,1015.89,11111222 
COMPS,ioos:station:USF.COMPS:C10:1,2019-08-07T02:35:00,27.1690,-82.9260,1015.96,11111222 
COMPS,ioos:station:USF.COMPS:C10:1,2019-08-07T03:35:00,27.1690,-82.9260,1015.63,11111222 
COMPS,ioos:station:USF.COMPS:C10:1,2019-08-07T04:35:00,27.1690,-82.9260,1015.6,11111222 
COMPS,ioos:station:USF.COMPS:C10:1,2019-08-07T05:35:00,27.1690,-82.9260,1015.57,11111222 
COMPS,ioos:station:USF.COMPS:C10:1,2019-08-07T06:35:00,27.1690,-82.9260,1015.27,11111222 
COMPS,ioos:station:USF.COMPS:C10:1,2019-08-07T07:35:00,27.1690,-82.9260,1014.91,11111222 
COMPS,ioos:station:USF.COMPS:C10:1,2019-08-07T08:35:00,27.1690,-82.9260,1015.04,11111222 
COMPS,ioos:station:USF.COMPS:C10:1,2019-08-07T09:35:00,27.1690,-82.9260,1015.1,11111222 
COMPS,ioos:station:USF.COMPS:C10:1,2019-08-07T10:35:00,27.1690,-82.9260,1015.08,11111222 
COMPS,ioos:station:USF.COMPS:C10:1,2019-08-07T11:35:00,27.1690,-82.9260,1015.77,11111222 
COMPS,ioos:station:USF.COMPS:C10:1,2019-08-07T12:35:00,27.1690,-82.9260,1016.15,11111222 
COMPS,ioos:station:USF.COMPS:C10:1,2019-08-07T13:35:00,27.1690,-82.9260,1016.66,11111222 
COMPS,ioos:station:USF.COMPS:C10:1,2019-08-07T14:35:00,27.1690,-82.9260,1016.66,11111222 
COMPS,ioos:station:USF.COMPS:C10:1,2019-08-07T15:35:00,27.1690,-82.9260,1016.69,11111222 
COMPS,ioos:station:USF.COMPS:C10:1,2019-08-07T16:35:00,27.1690,-82.9260,1016.7,11111222 
COMPS,ioos:station:USF.COMPS:C10:1,2019-08-07T17:35:00,27.1690,-82.9260,1016.33,11111222 
COMPS,ioos:station:USF.COMPS:C10:1,2019-08-07T18:35:00,27.1690,-82.9260,1015.99,11111222 
COMPS,ioos:station:USF.COMPS:C10:1,2019-08-07T19:35:00,27.1690,-82.9260,1015.44,11111222 
COMPS,ioos:station:USF.COMPS:C10:1,2019-08-07T20:35:00,27.1690,-82.9260,1014.74,11111222 
COMPS,ioos:station:USF.COMPS:C10:1,2019-08-07T21:35:00,27.1690,-82.9260,1015.39,11111222 
COMPS,ioos:station:USF.COMPS:C10:1,2019-08-07T22:35:00,27.1690,-82.9260,1015.32,11111222 
COMPS,ioos:station:USF.COMPS:C10:1,2019-08-07T23:35:00,27.1690,-82.9260,1015.83,11111222 
COMPS,ioos:station:USF.COMPS:C10:1,2019-08-08T00:35:00,27.1690,-82.9260,1016.17,11111222 
COMPS,ioos:station:USF.COMPS:C10:1,2019-08-08T01:35:00,27.1690,-82.9260,1015.53,11111222 
COMPS,ioos:station:USF.COMPS:C10:1,2019-08-08T02:35:00,27.1690,-82.9260,1015.47,11111222 
COMPS,ioos:station:USF.COMPS:C10:1,2019-08-08T03:35:00,27.1690,-82.9260,1015.98,11111222 
COMPS,ioos:station:USF.COMPS:C10:1,2019-08-08T06:35:00,27.1690,-82.9260,1015.29,11111222 
COMPS,ioos:station:USF.COMPS:C10:1,2019-08-08T07:35:00,27.1690,-82.9260,1015.0,11111222 
COMPS,ioos:station:USF.COMPS:C10:1,2019-08-08T08:35:00,27.1690,-82.9260,1014.86,11111222 
COMPS,ioos:station:USF.COMPS:C10:1,2019-08-08T09:35:00,27.1690,-82.9260,1014.95,11111222 
COMPS,ioos:station:USF.COMPS:C10:1,2019-08-08T10:35:00,27.1690,-82.9260,1015.24,11111222 
COMPS,ioos:station:USF.COMPS:C10:1,2019-08-08T11:35:00,27.1690,-82.9260,1015.59,11111222 
COMPS,ioos:station:USF.COMPS:C10:1,2019-08-08T12:35:00,27.1690,-82.9260,1016.23,11111222 
COMPS,ioos:station:USF.COMPS:C10:1,2019-08-08T13:35:00,27.1690,-82.9260,1016.49,11111222 
COMPS,ioos:station:USF.COMPS:C10:1,2019-08-08T14:35:00,27.1690,-82.9260,1016.86,11111222 
COMPS,ioos:station:USF.COMPS:C10:1,2019-08-08T15:35:00,27.1690,-82.9260,1017.08,11111222 
COMPS,ioos:station:USF.COMPS:C10:1,2019-08-08T16:35:00,27.1690,-82.9260,1016.91,11111222 
COMPS,ioos:station:USF.COMPS:C10:1,2019-08-08T17:35:00,27.1690,-82.9260,1016.96,11111222 
COMPS,ioos:station:USF.COMPS:C10:1,2019-08-08T18:35:00,27.1690,-82.9260,1016.72,11111222 
COMPS,ioos:station:USF.COMPS:C10:1,2019-08-08T19:35:00,27.1690,-82.9260,1016.17,11111222 
COMPS,ioos:station:USF.COMPS:C10:1,2019-08-08T20:35:00,27.1690,-82.9260,1015.55,11111222 
COMPS,ioos:station:USF.COMPS:C10:1,2019-08-08T21:35:00,27.1690,-82.9260,1015.84,11111222 
COMPS,ioos:station:USF.COMPS:C10:1,2019-08-08T22:35:00,27.1690,-82.9260,1016.35,11111222 
COMPS,ioos:station:USF.COMPS:C10:1,2019-08-08T23:35:00,27.1690,-82.9260,1016.1,11111222 
COMPS,ioos:station:USF.COMPS:C10:1,2019-08-09T00:35:00,27.1690,-82.9260,1016.19,11111222 
COMPS,ioos:station:USF.COMPS:C10:1,2019-08-09T01:35:00,27.1690,-82.9260,1016.07,11111222 
COMPS,ioos:station:USF.COMPS:C10:1,2019-08-09T02:35:00,27.1690,-82.9260,1016.61,11111222 
COMPS,ioos:station:USF.COMPS:C10:1,2019-08-09T03:35:00,27.1690,-82.9260,1016.51,11111222 
COMPS,ioos:station:USF.COMPS:C10:1,2019-08-09T04:35:00,27.1690,-82.9260,1015.77,11111222 
COMPS,ioos:station:USF.COMPS:C10:1,2019-08-09T05:35:00,27.1690,-82.9260,1015.81,11111222 
COMPS,ioos:station:USF.COMPS:C10:1,2019-08-09T06:35:00,27.1690,-82.9260,1015.39,11111222 
COMPS,ioos:station:USF.COMPS:C10:1,2019-08-09T07:35:00,27.1690,-82.9260,1014.58,11111222 
COMPS,ioos:station:USF.COMPS:C10:1,2019-08-09T08:35:00,27.1690,-82.9260,1014.14,11111222 
COMPS,ioos:station:USF.COMPS:C10:1,2019-08-09T09:35:00,27.1690,-82.9260,1014.12,11111222 
COMPS,ioos:station:USF.COMPS:C10:1,2019-08-09T10:35:00,27.1690,-82.9260,1014.52,11111222 
COMPS,ioos:station:USF.COMPS:C10:1,2019-08-09T11:35:00,27.1690,-82.9260,1014.91,11111222 
COMPS,ioos:station:USF.COMPS:C10:1,2019-08-09T12:35:00,27.1690,-82.9260,1015.59,11111222 
COMPS,ioos:station:USF.COMPS:C10:1,2019-08-09T13:35:00,27.1690,-82.9260,1016.0,11111222 
COMPS,ioos:station:USF.COMPS:C10:1,2019-08-09T14:35:00,27.1690,-82.9260,1016.77,11111222 
COMPS,ioos:station:USF.COMPS:C10:1,2019-08-09T15:35:00,27.1690,-82.9260,1016.97,11111222 
COMPS,ioos:station:USF.COMPS:C10:1,2019-08-09T16:35:00,27.1690,-82.9260,1016.94,11111222 
COMPS,ioos:station:USF.COMPS:C10:1,2019-08-09T17:35:00,27.1690,-82.9260,1016.56,11111222 
COMPS,ioos:station:USF.COMPS:C10:1,2019-08-09T18:35:00,27.1690,-82.9260,1015.93,11111222 
COMPS,ioos:station:USF.COMPS:C10:1,2019-08-09T19:35:00,27.1690,-82.9260,1015.57,11111222 
COMPS,ioos:station:USF.COMPS:C10:1,2019-08-09T20:35:00,27.1690,-82.9260,1015.25,11111222 
COMPS,ioos:station:USF.COMPS:C10:1,2019-08-09T21:35:00,27.1690,-82.9260,1015.05,11111222 
COMPS,ioos:station:USF.COMPS:C10:1,2019-08-09T22:35:00,27.1690,-82.9260,1015.08,11111222 
COMPS,ioos:station:USF.COMPS:C10:1,2019-08-09T23:35:00,27.1690,-82.9260,1015.25,11111222 
COMPS,ioos:station:USF.COMPS:C10:1,2019-08-10T00:35:00,27.1690,-82.9260,1015.5,11111222 
COMPS,ioos:station:USF.COMPS:C10:1,2019-08-10T01:35:00,27.1690,-82.9260,1016.12,11111222 
COMPS,ioos:station:USF.COMPS:C10:1,2019-08-10T02:35:00,27.1690,-82.9260,1016.24,11111222 
COMPS,ioos:station:USF.COMPS:C10:1,2019-08-10T04:35:00,27.1690,-82.9260,1015.92,11111222 
COMPS,ioos:station:USF.COMPS:C10:1,2019-08-10T05:35:00,27.1690,-82.9260,1015.55,11111222 
COMPS,ioos:station:USF.COMPS:C10:1,2019-08-10T06:35:00,27.1690,-82.9260,1014.55,11111222 
COMPS,ioos:station:USF.COMPS:C10:1,2019-08-10T07:35:00,27.1690,-82.9260,1014.14,11111222 
COMPS,ioos:station:USF.COMPS:C10:1,2019-08-10T08:35:00,27.1690,-82.9260,1013.88,11111222 
COMPS,ioos:station:USF.COMPS:C10:1,2019-08-10T09:35:00,27.1690,-82.9260,1014.16,11111222 
COMPS,ioos:station:USF.COMPS:C10:1,2019-08-10T10:35:00,27.1690,-82.9260,1014.56,11111222 
COMPS,ioos:station:USF.COMPS:C10:1,2019-08-10T11:35:00,27.1690,-82.9260,1015.39,11111222 
COMPS,ioos:station:USF.COMPS:C10:1,2019-08-10T12:35:00,27.1690,-82.9260,1015.61,11111222 
COMPS,ioos:station:USF.COMPS:C10:1,2019-08-10T13:35:00,27.1690,-82.9260,1016.27,11111222 
COMPS,ioos:station:USF.COMPS:C10:1,2019-08-10T14:35:00,27.1690,-82.9260,1016.43,11111222 
COMPS,ioos:station:USF.COMPS:C10:1,2019-08-10T15:35:00,27.1690,-82.9260,1017.08,11111222 
COMPS,ioos:station:USF.COMPS:C10:1,2019-08-10T16:35:00,27.1690,-82.9260,1016.79,11111222 
COMPS,ioos:station:USF.COMPS:C10:1,2019-08-10T17:35:00,27.1690,-82.9260,1016.92,11111222 
COMPS,ioos:station:USF.COMPS:C10:1,2019-08-10T18:35:00,27.1690,-82.9260,1015.95,11111222 
COMPS,ioos:station:USF.COMPS:C10:1,2019-08-10T19:35:00,27.1690,-82.9260,1015.25,11111222 
COMPS,ioos:station:USF.COMPS:C10:1,2019-08-10T20:35:00,27.1690,-82.9260,1014.79,11111222 
COMPS,ioos:station:USF.COMPS:C10:1,2019-08-10T21:35:00,27.1690,-82.9260,1014.55,11111222 
COMPS,ioos:station:USF.COMPS:C10:1,2019-08-10T22:35:00,27.1690,-82.9260,1013.93,11111222 
COMPS,ioos:station:USF.COMPS:C10:1,2019-08-10T23:35:00,27.1690,-82.9260,1014.12,11111222 
COMPS,ioos:station:USF.COMPS:C10:1,2019-08-11T00:35:00,27.1690,-82.9260,1014.39,11111222 
COMPS,ioos:station:USF.COMPS:C10:1,2019-08-11T01:35:00,27.1690,-82.9260,1015.09,11111222 
COMPS,ioos:station:USF.COMPS:C10:1,2019-08-11T02:35:00,27.1690,-82.9260,1015.63,11111222 
COMPS,ioos:station:USF.COMPS:C10:1,2019-08-11T03:35:00,27.1690,-82.9260,1015.66,11111222 
COMPS,ioos:station:USF.COMPS:C10:1,2019-08-11T04:35:00,27.1690,-82.9260,1015.92,11111222 
COMPS,ioos:station:USF.COMPS:C10:1,2019-08-11T05:35:00,27.1690,-82.9260,1015.46,11111222 
COMPS,ioos:station:USF.COMPS:C10:1,2019-08-11T06:35:00,27.1690,-82.9260,1015.06,11111222 
COMPS,ioos:station:USF.COMPS:C10:1,2019-08-11T08:35:00,27.1690,-82.9260,1014.19,11111222 
COMPS,ioos:station:USF.COMPS:C10:1,2019-08-11T09:35:00,27.1690,-82.9260,1014.02,11111222 
COMPS,ioos:station:USF.COMPS:C10:1,2019-08-11T10:35:00,27.1690,-82.9260,1014.61,11111222 
COMPS,ioos:station:USF.COMPS:C10:1,2019-08-11T11:35:00,27.1690,-82.9260,1015.09,11111222 
COMPS,ioos:station:USF.COMPS:C10:1,2019-08-11T12:35:00,27.1690,-82.9260,1015.72,11111222 
COMPS,ioos:station:USF.COMPS:C10:1,2019-08-11T13:35:00,27.1690,-82.9260,1016.1,11111222 
COMPS,ioos:station:USF.COMPS:C10:1,2019-08-11T14:35:00,27.1690,-82.9260,1016.7,11111222 
COMPS,ioos:station:USF.COMPS:C10:1,2019-08-11T15:35:00,27.1690,-82.9260,1017.21,11111222 
COMPS,ioos:station:USF.COMPS:C10:1,2019-08-11T16:35:00,27.1690,-82.9260,1016.73,11111222 
COMPS,ioos:station:USF.COMPS:C10:1,2019-08-11T17:35:00,27.1690,-82.9260,1016.39,11111222 
COMPS,ioos:station:USF.COMPS:C10:1,2019-08-11T18:35:00,27.1690,-82.9260,1015.63,11111222 
COMPS,ioos:station:USF.COMPS:C10:1,2019-08-11T19:35:00,27.1690,-82.9260,1014.91,11111222 
COMPS,ioos:station:USF.COMPS:C10:1,2019-08-11T20:35:00,27.1690,-82.9260,1014.53,11111222 
COMPS,ioos:station:USF.COMPS:C10:1,2019-08-11T21:35:00,27.1690,-82.9260,1014.11,11111222 
COMPS,ioos:station:USF.COMPS:C10:1,2019-08-11T22:35:00,27.1690,-82.9260,1014.32,11111222 
COMPS,ioos:station:USF.COMPS:C10:1,2019-08-11T23:35:00,27.1690,-82.9260,1014.91,11111222 
COMPS,ioos:station:USF.COMPS:C10:1,2019-08-12T06:35:00,27.1690,-82.9260,1014.04,11111222 
COMPS,ioos:station:USF.COMPS:C10:1,2019-08-12T09:35:00,27.1690,-82.9260,1012.78,11111222 
COMPS,ioos:station:USF.COMPS:C10:1,2019-08-12T12:35:00,27.1690,-82.9260,1014.56,11111222 
COMPS,ioos:station:USF.COMPS:C10:1,2019-08-12T14:35:00,27.1690,-82.9260,1015.35,11111222 
COMPS,ioos:station:USF.COMPS:C10:1,2019-08-12T15:35:00,27.1690,-82.9260,1015.53,11111222 
COMPS,ioos:station:USF.COMPS:C10:1,2019-08-12T16:35:00,27.1690,-82.9260,1015.39,11111222 
COMPS,ioos:station:USF.COMPS:C10:1,2019-08-12T17:35:00,27.1690,-82.9260,1015.24,11111222 
COMPS,ioos:station:USF.COMPS:C10:1,2019-08-12T18:35:00,27.1690,-82.9260,1015.05,11111222 
COMPS,ioos:station:USF.COMPS:C10:1,2019-08-12T19:35:00,27.1690,-82.9260,1014.22,11111222 
COMPS,ioos:station:USF.COMPS:C10:1,2019-08-12T20:35:00,27.1690,-82.9260,1013.21,11111222 
COMPS,ioos:station:USF.COMPS:C10:1,2019-08-12T21:35:00,27.1690,-82.9260,1013.21,11111222 
COMPS,ioos:station:USF.COMPS:C10:1,2019-08-12T22:35:00,27.1690,-82.9260,1013.48,11111222 
COMPS,ioos:station:USF.COMPS:C10:1,2019-08-12T23:35:00,27.1690,-82.9260,1013.65,11111222 
COMPS,ioos:station:USF.COMPS:C10:1,2019-08-13T00:35:00,27.1690,-82.9260,1014.07,11111222 
COMPS,ioos:station:USF.COMPS:C10:1,2019-08-13T01:35:00,27.1690,-82.9260,1013.88,11111222 
COMPS,ioos:station:USF.COMPS:C10:1,2019-08-13T02:35:00,27.1690,-82.9260,1013.84,11111222 
COMPS,ioos:station:USF.COMPS:C10:1,2019-08-13T03:35:00,27.1690,-82.9260,1013.87,11111222 
COMPS,ioos:station:USF.COMPS:C10:1,2019-08-13T04:35:00,27.1690,-82.9260,1013.21,11111222 
COMPS,ioos:station:USF.COMPS:C10:1,2019-08-13T06:35:00,27.1690,-82.9260,1012.83,11111222 
COMPS,ioos:station:USF.COMPS:C10:1,2019-08-13T08:35:00,27.1690,-82.9260,1012.44,11111222 
COMPS,ioos:station:USF.COMPS:C10:1,2019-08-13T09:35:00,27.1690,-82.9260,1012.22,11111222 
COMPS,ioos:station:USF.COMPS:C10:1,2019-08-13T11:35:00,27.1690,-82.9260,1013.41,11111222 
COMPS,ioos:station:USF.COMPS:C10:1,2019-08-13T12:35:00,27.1690,-82.9260,1013.71,11111222 